Temperature
21 20 18 17 17 16 16 16 16 16 16 16 16 15 15 15 15 15 15 15 15 15 14 14 14 14 14 14 14 14 15 15 15 15 15 15 16 15 15 15 14 13 14
21 20 19 17 17 16 16 16 16 16 16 16 15 15 15 15 15 15 15 15 15 15 14 14 14 14 14 14 14 14 15 15 15 15 15 15 15 15 15 14 14 13 13
20 20 19 18 17 16 16 16 16 15 15 15 15 15 15 15 15 15 15 15 14 14 14 14 14 14 14 14 14 14 14 15 15 15 14 13 14 15 14 14 14 14 13
19 20 19 18 18 17 16 16 15 15 15 15 15 15 15 15 15 15 15 14 14 14 14 14 15 15 15 15 14 14 14 14 14 14 13 13 13 14 14 14 14 13 13
18 19 19 19 18 18 17 16 16 15 15 15 15 15 15 15 16 15 15 14 14 14 14 15 15 15 15 15 14 14 14 14 14 13 13 13 13 14 14 14 13 13 13
17 17 19 19 18 18 18 17 16 15 15 15 15 15 15 16 16 16 16 15 15 14 15 15 15 15 15 15 14 14 14 14 13 13 13 12 12 13 13 13 13 13 13
17 17 18 18 18 18 18 17 16 15 15 15 15 15 15 16 16 16 16 15 15 15 15 15 15 15 15 14 14 14 14 14 13 13 13 13 13 13 13 13 13 13 13
17 17 17 18 18 18 18 17 17 15 15 14 15 15 15 16 16 16 15 15 15 15 14 14 15 14 14 14 14 14 14 14 13 13 13 13 13 13 13 13 13 12 12
17 17 17 17 17 17 18 17 17 15 15 14 14 15 15 15 15 15 15 15 15 14 14 14 14 14 14 14 14 14 14 14 13 13 13 12 13 12 12 12 12 12 12
17 17 17 17 16 16 17 17 16 16 15 14 14 14 15 15 15 15 15 15 14 14 14 14 14 14 14 14 14 14 14 13 12 12 12 12 12 12 12 12 12 11 11
17 17 16 16 16 16 15 16 16 16 15 15 14 14 14 14 14 14 14 14 14 14 14 14 14 14 14 14 14 14 13 12 12 11 11 12 12 12 11 11 11 11 11
17 17 16 16 16 16 16 16 15 15 15 15 14 14 14 13 13 13 14 14 14 14 14 14 14 14 14 14 14 14 13 12 11 11 11 11 11 11 11 11 11 11 11
16 16 17 16 16 16 16 16 15 15 15 15 14 14 14 13 13 13 13 13 13 13 14 14 14 14 13 13 13 13 13 12 11 11 10 11 11 11 11 11 10 10 10
16 16 17 17 17 16 16 16 16 16 16 15 15 15 14 14 13 13 13 13 13 13 13 13 13 14 13 13 13 13 13 12 11 10 10 11 10 10 10 10 10 10 10
16 16 17 17 17 17 16 16 16 16 16 16 16 16 15 14 14 14 13 13 13 13 13 13 13 13 13 13 13 13 12 12 11 10 10 11 10 10 10 10 10 10 10
16 16 17 17 17 17 17 16 16 16 16 15 15 16 15 15 15 14 14 14 13 13 13 13 13 13 13 13 13 12 12 12 11 10 9 10 10 10 10 10 10 9 9
16 16 16 17 17 17 17 17 16 16 16 16 15 15 15 15 15 15 14 14 13 13 13 13 13 13 12 12 12 12 12 11 11 10 9 9 10 10 10 10 10 9 9
16 16 16 17 17 17 17 17 17 17 16 16 16 15 15 15 15 14 14 14 14 13 13 13 13 12 12 12 12 12 12 11 10 10 10 9 9 9 9 9 9 9 9
16 17 17 17 17 17 17 17 17 17 17 16 16 16 16 15 15 14 14 14 14 13 13 13 12 12 12 12 12 12 11 11 10 10 9 9 9 9 9 9 9 9 9
16 16 17 17 17 17 16 16 16 16 17 17 17 17 16 16 15 14 14 14 14 13 13 12 12 12 12 11 11 11 11 10 10 10 9 9 9 9 9 9 9 9 8
16 16 16 16 17 17 16 16 16 16 17 17 17 17 17 16 16 15 15 14 14 13 13 12 12 12 11 11 11 11 11 11 10 10 9 9 9 9 9 9 9 8 8
16 16 16 16 16 16 16 16 16 16 16 16 17 17 16 16 16 16 15 15 15 14 13 12 12 12 11 11 11 10 10 9 10 10 10 9 9 9 9 9 9 8 8
15 15 16 16 16 16 16 16 15 15 14 14 15 16 16 16 16 16 15 15 15 14 13 13 13 12 11 11 11 11 11 10 10 10 10 10 10 9 9 9 9 8 8
14 14 15 15 15 15 15 15 15 14 14 14 15 15 16 16 15 15 15 14 14 14 14 13 13 12 12 11 11 11 11 11 11 10 10 10 10 9 9 9 9 8 7
13 13 14 14 14 15 15 15 14 14 13 13 14 14 14 14 15 15 14 14 14 14 14 13 13 12 12 12 11 11 11 11 11 11 11 11 10 10 9 9 8 8 7
12 12 13 13 13 14 14 14 14 14 14 13 13 13 13 13 14 14 13 13 13 14 14 13 13 13 12 12 12 11 11 11 11 11 11 11 11 10 9 8 8 7 6
Wind_Speed
11 16 18 16 14 14 14 15 16 16 16 16 16 15 13 12 11 9 8 6 5 5 8 12 15 15 15 14 14 13 14 14 14 14 14 13 11 10 9 6 3 8 8
14 18 19 17 15 14 14 15 16 16 16 16 15 14 13 11 10 9 7 6 6 8 12 15 16 15 14 13 13 12 12 13 13 12 10 12 12 10 9 7 8 8 7
16 18 19 17 16 15 14 15 16 17 16 16 15 14 12 11 10 9 8 8 10 13 15 16 15 14 13 12 11 11 11 10 10 8 4 8 10 9 7 6 6 6 5
16 17 17 18 16 15 15 15 16 16 16 15 14 13 12 11 10 9 9 10 13 14 15 15 14 13 12 11 10 9 9 8 7 3 6 8 8 8 6 5 5 4 3
15 15 16 17 16 15 14 14 15 15 16 16 15 13 12 11 10 10 10 11 12 13 13 14 13 11 10 9 8 7 7 7 5 3 7 6 7 7 6 5 4 3 2
14 14 16 16 14 13 13 13 14 14 16 16 15 14 13 12 11 11 11 11 11 12 12 12 11 10 9 8 6 6 7 6 4 6 6 5 6 6 5 5 5 4 5
13 13 15 15 13 12 12 12 13 14 16 16 16 14 13 13 12 11 11 10 10 11 11 11 10 9 8 7 6 6 6 4 4 5 4 5 6 5 5 5 5 7 10
12 12 14 14 12 12 12 12 12 14 16 16 16 15 14 13 13 12 10 10 10 9 9 10 10 8 7 7 7 7 6 3 4 4 3 3 5 4 4 6 9 13 17
12 12 12 13 13 12 11 11 12 14 16 16 16 15 14 14 13 12 11 9 8 8 9 11 10 9 8 7 7 7 6 3 2 3 2 2 4 3 7 11 15 17 18
11 11 11 12 12 12 13 11 11 13 15 16 15 15 14 13 13 12 11 9 7 8 10 11 11 9 8 8 8 7 6 2 3 3 3 6 7 11 15 16 17 17 17
10 10 10 10 11 10 11 12 12 12 13 14 15 15 15 12 12 12 10 9 8 9 11 12 11 10 9 8 7 6 3 1 3 4 7 12 13 15 15 15 15 15 15
11 11 10 10 10 10 9 11 12 12 13 14 13 15 14 11 10 9 11 9 9 10 12 12 11 9 6 5 6 5 3 3 4 5 8 11 12 12 12 12 12 13 13
10 11 10 10 10 10 9 9 9 10 11 13 13 15 13 11 9 9 10 10 10 11 9 9 9 6 4 4 4 3 3 3 3 5 8 10 10 10 10 10 10 11 11
9 10 11 11 10 11 10 9 9 9 9 10 13 15 13 10 10 10 9 10 10 9 7 7 5 6 5 5 4 4 5 4 4 4 8 9 9 9 9 9 9 10 10
10 11 12 12 12 11 11 9 9 10 10 12 12 14 14 11 10 10 9 9 10 8 8 7 7 6 6 5 4 5 5 5 6 6 7 9 9 8 8 8 8 8 8
12 13 13 14 14 13 11 10 10 11 11 12 13 15 16 13 11 10 9 9 10 10 9 8 8 7 6 5 5 5 6 6 6 7 7 9 9 9 8 8 8 7 7
12 13 14 15 16 16 15 14 12 12 12 12 13 15 17 16 14 12 10 9 11 11 10 8 8 6 5 5 5 6 6 7 7 7 7 7 8 9 8 8 7 7 6
12 13 14 13 15 17 16 15 12 13 13 13 13 14 17 18 17 14 10 10 13 12 10 8 8 7 6 6 6 6 6 6 8 8 8 8 8 8 9 8 7 6 5
12 13 13 14 16 17 17 14 13 13 13 14 14 14 16 19 19 16 12 12 14 11 10 9 9 8 7 7 6 6 6 7 7 8 9 9 8 8 8 9 7 6 4
11 11 12 13 15 15 14 13 11 12 13 13 14 16 17 17 20 18 13 14 14 11 10 10 10 8 7 7 6 5 6 6 7 8 9 9 9 9 9 8 7 5 4
9 10 11 12 13 13 12 13 13 14 14 13 14 18 19 18 19 18 12 14 14 13 14 14 11 11 7 8 6 5 5 7 8 7 8 9 10 10 9 9 7 6 4
7 8 10 11 12 13 12 13 13 14 13 14 12 14 18 19 19 17 17 15 15 14 16 16 13 9 7 9 7 5 5 6 8 9 8 8 9 10 10 9 8 6 5
4 6 6 8 10 11 12 11 11 11 12 12 13 14 16 19 19 18 18 16 16 15 15 17 17 15 10 11 9 7 5 7 6 8 11 10 10 9 9 9 9 7 5
6 5 5 6 7 8 8 10 14 14 15 17 15 14 16 17 17 19 17 16 15 15 16 17 18 16 14 11 9 7 5 3 5 6 7 10 11 10 10 8 9 7 6
8 7 6 6 5 5 6 8 11 14 14 13 14 16 15 14 16 16 16 15 16 15 17 17 18 18 15 13 9 6 5 3 5 5 5 7 8 9 9 9 8 7 7
9 8 8 8 7 5 5 6 9 12 14 15 15 14 14 12 12 15 15 15 16 15 17 17 17 19 16 15 12 9 7 5 6 6 4 4 6 7 9 7 7 7 7
Wind_Direction
155 152 150 150 149 148 148 149 147 143 141 138 134 130 125 121 117 112 105 92 82 106 114 104 99 91 86 85 84 84 82 81 78 73 69 71 77 81 80 71 44 76 65
150 150 147 150 151 151 149 146 143 141 139 136 134 131 127 124 120 116 110 97 86 107 108 101 93 89 89 89 90 90 88 85 83 78 79 85 75 72 72 61 36 58 61
149 148 152 151 152 152 148 144 143 142 140 138 136 132 128 124 122 119 116 103 91 95 98 95 92 91 92 94 93 91 90 91 90 90 102 87 84 72 68 61 55 54 53
149 150 155 150 152 151 149 148 147 147 145 142 138 132 128 125 124 121 117 104 90 89 90 91 90 92 95 95 92 90 91 96 102 134 85 73 75 69 64 58 54 46 36
151 152 147 149 151 153 153 153 155 154 150 145 138 132 129 128 126 120 109 98 92 91 91 91 91 92 94 93 91 92 97 107 124 110 77 71 70 60 60 52 48 41 25
154 153 149 149 151 155 157 161 162 159 154 147 140 136 134 133 127 118 109 103 101 100 98 96 93 91 92 92 92 94 103 122 156 87 78 66 62 53 57 49 44 57 57
155 153 152 150 154 160 164 167 167 162 154 148 145 143 141 137 131 125 120 116 114 112 109 104 97 91 88 88 91 96 103 113 95 89 74 64 44 26 47 49 60 72 74
155 155 153 152 157 165 171 175 174 166 158 153 151 149 146 142 139 138 134 130 127 124 121 114 105 96 88 86 92 99 101 112 105 90 69 54 23 3 60 79 85 86 82
160 161 163 165 168 171 175 178 175 167 160 157 157 156 152 149 149 150 148 143 139 135 127 118 110 102 94 92 97 102 101 98 90 72 49 25 22 48 98 97 92 86 81
170 171 173 174 175 177 179 178 172 165 162 162 163 162 157 155 158 160 163 154 142 133 128 123 116 110 105 102 105 109 117 158 79 91 65 70 79 93 95 92 88 84 80
183 183 182 181 180 182 181 175 179 172 170 169 173 169 169 177 173 172 170 155 147 136 133 130 123 118 116 110 111 123 155 117 98 85 83 86 88 89 87 87 85 83 81
190 192 191 190 188 187 183 183 191 190 187 192 188 183 191 191 186 179 162 168 155 142 138 135 132 138 150 136 134 166 147 134 124 111 100 96 93 91 90 89 88 86 83
197 198 201 199 197 195 192 194 195 195 195 202 200 193 195 194 191 191 179 178 175 167 164 148 164 171 170 153 163 163 145 148 138 128 113 105 103 100 96 94 91 88 84
207 207 207 206 206 206 206 203 203 201 199 202 203 202 199 200 202 200 199 191 188 190 186 191 196 176 172 171 175 166 164 169 160 141 115 111 110 108 105 100 96 91 86
217 215 213 212 213 210 213 216 214 211 207 206 206 207 207 204 205 207 210 202 203 197 193 198 200 188 184 178 180 180 176 173 168 152 130 110 111 116 113 108 103 98 92
222 220 215 214 215 213 213 216 219 220 216 216 210 210 210 211 208 206 207 205 206 203 201 200 202 193 191 188 185 186 182 177 177 170 150 129 115 119 122 115 108 100 92
233 228 221 218 215 216 217 217 219 222 221 221 218 215 213 214 212 208 206 201 202 202 198 199 194 194 189 185 189 189 189 187 180 175 169 158 142 126 126 124 117 106 93
245 238 231 221 219 218 219 218 217 219 220 224 223 220 217 216 214 211 208 204 200 195 191 189 187 187 187 191 189 186 191 189 191 183 178 175 164 153 137 127 120 111 98
250 244 237 228 225 223 221 220 219 219 219 223 223 222 220 218 215 212 211 205 199 196 193 189 192 192 192 188 187 187 193 193 191 192 191 184 176 173 158 134 123 110 103
256 250 245 238 233 232 227 224 223 222 223 223 222 222 220 218 216 214 211 206 198 197 195 192 189 189 188 175 171 184 197 199 201 201 197 190 185 184 182 171 167 143 122
260 253 248 244 238 233 229 224 222 223 225 225 224 224 221 218 215 214 211 206 201 202 200 196 187 182 178 166 162 181 198 211 214 205 205 201 196 193 193 193 195 191 181
274 268 261 252 247 239 233 232 230 230 230 229 226 226 224 220 216 214 213 208 204 206 203 197 185 184 177 182 181 176 196 205 216 214 209 210 204 197 202 202 201 202 208
328 305 285 273 265 254 247 242 238 236 235 231 230 228 225 222 219 216 218 214 207 206 203 198 194 189 187 191 199 192 192 206 187 197 211 209 208 205 204 201 202 200 199
6 344 320 301 284 271 257 245 238 233 232 232 231 231 229 223 220 218 219 219 211 210 208 202 200 199 191 188 200 225 240 201 182 182 200 211 211 213 209 200 200 196 194
9 0 347 333 316 297 269 250 247 244 244 245 240 239 236 229 222 218 218 217 214 214 215 206 202 202 199 195 187 183 199 212 221 195 186 193 205 214 209 203 199 197 191
1 355 348 340 334 324 299 269 251 250 249 248 246 243 241 235 224 219 217 216 217 216 218 213 206 206 205 203 194 184 179 179 195 197 189 179 192 194 197 200 202 198 193
Height
1529 1531 1532 1534 1536 1538 1541 1543 1545 1546 1547 1549 1549 1550 1551 1551 1551 1550 1551 1551 1551 1551 1551 1551 1551 1551 1552 1552 1552 1552 1552 1552 1552 1552 1552 1552 1552 1551 1551 1550 1551 1551 1549
1529 1531 1532 1534 1537 1539 1541 1543 1545 1547 1548 1549 1550 1551 1551 1551 1551 1550 1551 1551 1551 1552 1552 1552 1553 1553 1553 1553 1553 1552 1552 1552 1552 1552 1553 1552 1552 1552 1551 1551 1551 1551 1550
1529 1531 1532 1535 1537 1539 1541 1543 1545 1547 1548 1550 1551 1551 1551 1551 1551 1551 1551 1552 1553 1553 1553 1554 1555 1555 1554 1554 1554 1553 1553 1553 1553 1554 1554 1555 1554 1553 1553 1552 1552 1552 1552
1529 1532 1533 1535 1537 1539 1541 1543 1545 1547 1549 1550 1551 1551 1552 1552 1552 1551 1552 1553 1553 1554 1555 1556 1556 1556 1555 1555 1555 1555 1555 1555 1555 1555 1557 1556 1556 1554 1554 1554 1553 1553 1553
1530 1533 1534 1536 1538 1540 1542 1543 1545 1547 1549 1550 1551 1552 1552 1553 1552 1552 1553 1553 1554 1555 1556 1557 1557 1557 1557 1557 1556 1556 1556 1556 1556 1557 1557 1557 1556 1555 1555 1555 1554 1554 1554
1532 1534 1535 1537 1539 1541 1542 1544 1545 1547 1549 1550 1551 1552 1553 1553 1554 1554 1554 1555 1556 1557 1557 1558 1558 1558 1558 1558 1558 1558 1558 1558 1558 1558 1558 1558 1557 1556 1555 1555 1555 1555 1555
1533 1535 1536 1538 1540 1541 1543 1544 1546 1548 1549 1551 1552 1553 1554 1554 1555 1555 1555 1556 1557 1558 1559 1559 1559 1559 1559 1559 1559 1559 1559 1559 1560 1559 1559 1558 1557 1556 1556 1556 1555 1555 1555
1534 1535 1536 1538 1540 1542 1544 1545 1547 1548 1550 1551 1552 1553 1554 1555 1556 1556 1557 1557 1558 1559 1560 1560 1560 1560 1560 1560 1560 1560 1560 1560 1560 1560 1559 1558 1557 1556 1556 1555 1555 1555 1555
1534 1535 1537 1539 1540 1542 1544 1546 1547 1549 1550 1551 1552 1554 1555 1556 1556 1557 1558 1559 1559 1560 1560 1560 1561 1561 1561 1561 1561 1561 1561 1560 1561 1560 1559 1558 1557 1556 1556 1555 1555 1555 1555
1534 1536 1538 1540 1541 1543 1544 1546 1548 1549 1551 1552 1553 1554 1555 1556 1557 1557 1558 1559 1560 1560 1561 1561 1561 1561 1561 1561 1561 1561 1561 1560 1561 1560 1560 1559 1557 1557 1556 1556 1556 1556 1555
1533 1535 1537 1539 1541 1543 1545 1546 1547 1549 1550 1551 1553 1554 1555 1556 1557 1558 1558 1559 1560 1560 1561 1561 1561 1561 1561 1561 1561 1560 1560 1561 1561 1561 1560 1559 1558 1558 1557 1557 1556 1556 1556
1532 1534 1536 1538 1540 1542 1544 1545 1547 1548 1549 1551 1552 1553 1554 1556 1558 1558 1558 1558 1559 1560 1560 1561 1561 1561 1560 1560 1560 1560 1560 1560 1560 1560 1559 1558 1558 1558 1557 1557 1557 1556 1555
1531 1533 1535 1536 1538 1540 1542 1544 1545 1547 1548 1549 1551 1552 1553 1555 1556 1557 1557 1557 1558 1559 1559 1559 1560 1560 1560 1559 1559 1559 1559 1559 1560 1559 1558 1557 1557 1556 1556 1556 1556 1555 1554
1530 1531 1533 1535 1536 1538 1540 1542 1544 1545 1545 1547 1548 1549 1551 1552 1553 1555 1556 1557 1557 1558 1558 1558 1558 1558 1558 1558 1558 1557 1557 1557 1558 1558 1556 1555 1555 1555 1554 1554 1554 1554 1553
1528 1529 1530 1532 1534 1536 1538 1540 1541 1542 1543 1544 1545 1546 1547 1548 1550 1551 1553 1554 1555 1556 1556 1556 1557 1557 1557 1557 1556 1556 1556 1555 1556 1556 1554 1554 1554 1553 1553 1553 1553 1553 1553
1526 1527 1528 1530 1532 1533 1535 1536 1538 1539 1540 1541 1542 1543 1544 1545 1546 1547 1549 1550 1551 1552 1553 1554 1554 1555 1555 1555 1555 1554 1554 1553 1554 1554 1553 1552 1552 1552 1552 1552 1552 1552 1552
1524 1525 1526 1527 1528 1530 1531 1532 1533 1535 1536 1537 1538 1539 1540 1541 1542 1543 1544 1545 1547 1548 1549 1551 1551 1552 1552 1552 1552 1552 1552 1551 1551 1551 1551 1551 1550 1550 1550 1550 1551 1551 1551
1520 1521 1522 1523 1524 1525 1526 1528 1529 1530 1531 1533 1534 1535 1536 1537 1538 1539 1539 1540 1542 1543 1545 1546 1547 1548 1549 1549 1549 1549 1549 1549 1549 1549 1548 1548 1548 1548 1548 1549 1549 1549 1549
1514 1516 1517 1518 1519 1521 1522 1523 1524 1525 1526 1527 1528 1529 1530 1532 1533 1534 1534 1535 1537 1538 1540 1541 1543 1544 1545 1546 1546 1546 1546 1546 1546 1545 1546 1546 1546 1546 1546 1546 1547 1547 1547
1508 1509 1511 1512 1514 1515 1516 1517 1518 1519 1520 1521 1522 1523 1524 1525 1527 1528 1529 1530 1531 1533 1534 1536 1538 1540 1541 1542 1542 1543 1542 1542 1542 1542 1543 1543 1543 1543 1544 1544 1544 1544 1544
1502 1503 1505 1506 1508 1509 1510 1510 1511 1512 1513 1514 1515 1516 1517 1519 1520 1521 1523 1524 1525 1526 1528 1530 1532 1534 1535 1537 1538 1539 1538 1538 1538 1538 1539 1539 1539 1540 1540 1541 1541 1541 1541
1496 1497 1498 1500 1501 1502 1503 1504 1505 1506 1506 1507 1508 1509 1510 1511 1513 1514 1515 1516 1518 1519 1521 1523 1525 1527 1529 1531 1533 1534 1535 1535 1532 1533 1534 1535 1535 1536 1536 1537 1537 1537 1537
1491 1492 1492 1493 1494 1495 1496 1497 1498 1498 1499 1500 1500 1501 1503 1504 1505 1506 1508 1509 1510 1512 1513 1515 1517 1520 1522 1525 1526 1529 1529 1528 1528 1528 1528 1529 1531 1531 1532 1532 1532 1533 1533
1489 1488 1488 1488 1488 1489 1489 1490 1490 1491 1491 1492 1493 1494 1495 1496 1497 1498 1500 1501 1502 1504 1506 1507 1510 1513 1515 1517 1519 1521 1523 1523 1524 1523 1524 1524 1525 1526 1527 1527 1528 1528 1528
1487 1486 1486 1485 1484 1484 1484 1484 1484 1485 1486 1487 1488 1488 1488 1489 1489 1490 1491 1493 1494 1496 1498 1500 1501 1504 1506 1509 1511 1513 1515 1517 1518 1519 1519 1519 1520 1521 1522 1522 1522 1523 1523
1486 1485 1484 1483 1482 1481 1480 1479 1479 1479 1480 1480 1481 1481 1481 1481 1481 1482 1483 1484 1486 1488 1490 1492 1493 1496 1498 1501 1503 1505 1507 1509 1510 1513 1514 1514 1514 1515 1516 1516 1517 1517 1517